Time,TemperatureF,DewpointF,PressureIn,WindDirection,WindDirectionDegrees,WindSpeedMPH,WindSpeedGustMPH,Humidity,HourlyPrecipIn,Conditions,Clouds,dailyrainin,SoftwareType,DateUTC
2013-06-04 00:12:00,70.0,24.6,29.70,East,90,0.0,-999.0,18,-99.99,,,0.00,Acu-Link.com,2013-06-04 06:12:00,
2013-06-04 00:27:00,68.4,25.8,29.72,ENE,67,1.7,-999.0,20,-99.99,,,0.00,Acu-Link.com,2013-06-04 06:27:00,
2013-06-04 00:43:00,69.6,22.9,29.72,NNE,22,1.7,-999.0,17,-99.99,,,0.00,Acu-Link.com,2013-06-04 06:43:00,
2013-06-04 00:58:00,72.1,-33.6,29.71,SW,225,0.0,-999.0,1,-99.99,,,0.00,Acu-Link.com,2013-06-04 06:58:00,
2013-06-04 01:13:00,71.1,22.6,29.71,West,270,0.0,-999.0,16,-99.99,,,0.00,Acu-Link.com,2013-06-04 07:13:00,
2013-06-04 01:28:00,70.9,22.5,29.72,NE,45,0.0,-999.0,16,-99.99,,,0.00,Acu-Link.com,2013-06-04 07:28:00,
2013-06-04 01:43:00,68.5,23.3,29.73,ESE,112,0.0,-999.0,18,-99.99,,,0.00,Acu-Link.com,2013-06-04 07:43:00,
2013-06-04 01:59:00,66.4,26.4,29.72,SE,135,0.0,-999.0,22,-99.99,,,0.00,Acu-Link.com,2013-06-04 07:59:00,
2013-06-04 02:16:00,65.7,26.9,29.73,SSE,157,0.0,-999.0,23,-99.99,,,0.00,Acu-Link.com,2013-06-04 08:16:00,
2013-06-04 02:31:00,64.9,28.2,29.72,South,180,0.0,-999.0,25,-99.99,,,0.00,Acu-Link.com,2013-06-04 08:31:00,
2013-06-04 02:46:00,63.5,28.9,29.73,North,0,0.0,-999.0,27,-99.99,,,0.00,Acu-Link.com,2013-06-04 08:46:00,
2013-06-04 03:01:00,62.6,28.2,29.74,East,90,0.0,-999.0,27,-99.99,,,0.00,Acu-Link.com,2013-06-04 09:01:00,
2013-06-04 03:17:00,61.5,29.0,29.74,SSW,202,0.0,-999.0,29,-99.99,,,0.00,Acu-Link.com,2013-06-04 09:17:00,
2013-06-04 03:32:00,60.3,27.1,29.74,North,0,0.0,-999.0,28,-99.99,,,0.00,Acu-Link.com,2013-06-04 09:32:00,
2013-06-04 03:47:00,60.6,26.4,29.74,SSE,157,0.0,-999.0,27,-99.99,,,0.00,Acu-Link.com,2013-06-04 09:47:00,
2013-06-04 04:02:00,60.4,27.2,29.74,SE,135,0.0,-999.0,28,-99.99,,,0.00,Acu-Link.com,2013-06-04 10:02:00,
2013-06-04 04:18:00,59.9,28.4,29.74,South,180,0.0,-999.0,30,-99.99,,,0.00,Acu-Link.com,2013-06-04 10:18:00,
2013-06-04 04:33:00,59.0,29.2,29.75,East,90,0.0,-999.0,32,-99.99,,,0.00,Acu-Link.com,2013-06-04 10:33:00,
2013-06-04 04:48:00,58.3,29.3,29.75,ENE,67,0.0,-999.0,33,-99.99,,,0.00,Acu-Link.com,2013-06-04 10:48:00,
2013-06-04 05:03:00,58.1,29.2,29.77,ENE,67,0.0,-999.0,33,-99.99,,,0.00,Acu-Link.com,2013-06-04 11:03:00,
2013-06-04 05:18:00,57.9,29.7,29.76,SE,135,0.0,-999.0,34,-99.99,,,0.00,Acu-Link.com,2013-06-04 11:18:00,
2013-06-04 05:34:00,57.0,30.3,29.76,East,90,0.0,-999.0,36,-99.99,,,0.00,Acu-Link.com,2013-06-04 11:34:00,
2013-06-04 05:49:00,55.9,31.9,29.77,WSW,247,0.0,-999.0,40,-99.99,,,0.00,Acu-Link.com,2013-06-04 11:49:00,
2013-06-04 06:04:00,56.3,31.0,29.77,SE,135,0.0,-999.0,38,-99.99,,,0.00,Acu-Link.com,2013-06-04 12:04:00,
2013-06-04 06:19:00,56.3,32.3,29.77,SSW,202,0.0,-999.0,40,-99.99,,,0.00,Acu-Link.com,2013-06-04 12:19:00,
2013-06-04 06:35:00,59.9,35.5,29.79,SSE,157,0.0,-999.0,40,-99.99,,,0.00,Acu-Link.com,2013-06-04 12:35:00,
2013-06-04 06:50:00,65.5,37.8,29.78,NNE,22,0.0,-999.0,36,-99.99,,,0.00,Acu-Link.com,2013-06-04 12:50:00,
2013-06-04 07:05:00,70.9,38.7,29.79,SW,225,0.0,-999.0,31,-99.99,,,0.00,Acu-Link.com,2013-06-04 13:05:00,
2013-06-04 07:20:00,74.8,39.5,29.80,East,90,0.0,-999.0,28,-99.99,,,0.00,Acu-Link.com,2013-06-04 13:20:00,
2013-06-04 07:36:00,75.2,32.6,29.80,SW,225,1.1,-999.0,21,-99.99,,,0.00,Acu-Link.com,2013-06-04 13:36:00,
2013-06-04 07:51:00,74.7,29.7,29.80,South,180,0.0,-999.0,19,-99.99,,,0.00,Acu-Link.com,2013-06-04 13:51:00,
2013-06-04 08:21:00,81.1,32.1,29.80,SSE,157,0.0,-999.0,17,-99.99,,,0.00,Acu-Link.com,2013-06-04 14:21:00,
2013-06-04 08:37:00,83.8,-26.6,29.80,NNE,22,2.2,-999.0,1,-99.99,,,0.00,Acu-Link.com,2013-06-04 14:37:00,
2013-06-04 08:52:00,85.3,-25.7,29.82,NE,45,4.2,-999.0,1,-99.99,,,0.00,Acu-Link.com,2013-06-04 14:52:00,
2013-06-04 09:07:00,86.9,-24.8,29.81,SE,135,0.0,-999.0,1,-99.99,,,0.00,Acu-Link.com,2013-06-04 15:07:00,
2013-06-04 09:23:00,89.6,-23.2,29.82,West,270,1.1,-999.0,1,-99.99,,,0.00,Acu-Link.com,2013-06-04 15:23:00,
2013-06-04 09:38:00,91.2,-22.2,29.80,SW,225,0.0,-999.0,1,-99.99,,,0.00,Acu-Link.com,2013-06-04 15:38:00,
2013-06-04 09:53:00,93.9,-20.6,29.79,West,270,3.2,-999.0,1,-99.99,,,0.00,Acu-Link.com,2013-06-04 15:53:00,
2013-06-04 10:09:00,94.3,-20.4,29.80,SW,225,1.7,-999.0,1,-99.99,,,0.00,Acu-Link.com,2013-06-04 16:09:00,
2013-06-04 10:24:00,96.4,-19.2,29.80,WSW,247,3.2,-999.0,1,-99.99,,,0.00,Acu-Link.com,2013-06-04 16:24:00,
2013-06-04 10:39:00,96.3,-19.2,29.81,ESE,112,0.0,-999.0,1,-99.99,,,0.00,Acu-Link.com,2013-06-04 16:39:00,
2013-06-04 10:54:00,98.1,-18.2,29.81,SW,225,0.0,-999.0,1,-99.99,,,0.00,Acu-Link.com,2013-06-04 16:54:00,
2013-06-04 11:10:00,100.0,-17.1,29.81,SSE,157,2.7,-999.0,1,-99.99,,,0.00,Acu-Link.com,2013-06-04 17:10:00,
2013-06-04 11:25:00,98.8,-17.8,29.79,East,90,1.1,-999.0,1,-99.99,,,0.00,Acu-Link.com,2013-06-04 17:25:00,
2013-06-04 11:40:00,102.7,-15.5,29.79,West,270,4.2,-999.0,1,-99.99,,,0.00,Acu-Link.com,2013-06-04 17:40:00,
2013-06-04 11:56:00,105.8,-13.7,29.78,West,270,4.7,-999.0,1,-99.99,,,0.00,Acu-Link.com,2013-06-04 17:56:00,
2013-06-04 12:26:00,104.5,-14.4,29.76,West,270,4.7,-999.0,1,-99.99,,,0.00,Acu-Link.com,2013-06-04 18:26:00,
2013-06-04 12:42:00,103.5,-15.0,29.75,East,90,1.1,-999.0,1,-99.99,,,0.00,Acu-Link.com,2013-06-04 18:42:00,
2013-06-04 12:57:00,105.6,-13.8,29.76,ESE,112,3.2,-999.0,1,-99.99,,,0.00,Acu-Link.com,2013-06-04 18:57:00,
2013-06-04 13:12:00,106.2,-13.4,29.75,ESE,112,0.0,-999.0,1,-99.99,,,0.00,Acu-Link.com,2013-06-04 19:12:00,
2013-06-04 13:27:00,104.2,-14.6,29.73,WSW,247,5.3,-999.0,1,-99.99,,,0.00,Acu-Link.com,2013-06-04 19:27:00,
2013-06-04 13:42:00,103.1,-15.3,29.73,WNW,292,3.7,-999.0,1,-99.99,,,0.00,Acu-Link.com,2013-06-04 19:42:00,
2013-06-04 13:58:00,102.9,-15.4,29.73,East,90,0.0,-999.0,1,-99.99,,,0.00,Acu-Link.com,2013-06-04 19:58:00,
2013-06-04 14:13:00,103.3,-15.1,29.73,WSW,247,1.1,-999.0,1,-99.99,,,0.00,Acu-Link.com,2013-06-04 20:13:00,
2013-06-04 14:28:00,103.5,-15.0,29.71,WNW,292,3.7,-999.0,1,-99.99,,,0.00,Acu-Link.com,2013-06-04 20:28:00,
2013-06-04 14:43:00,103.3,-15.1,29.71,East,90,2.7,-999.0,1,-99.99,,,0.00,Acu-Link.com,2013-06-04 20:43:00,
2013-06-04 14:59:00,103.1,-15.3,29.69,ENE,67,2.2,-999.0,1,-99.99,,,0.00,Acu-Link.com,2013-06-04 20:59:00,
2013-06-04 15:14:00,101.7,-16.1,29.71,WNW,292,2.2,-999.0,1,-99.99,,,0.00,Acu-Link.com,2013-06-04 21:14:00,
2013-06-04 15:29:00,99.7,-17.2,29.68,NNW,337,5.8,-999.0,1,-99.99,,,0.00,Acu-Link.com,2013-06-04 21:29:00,
2013-06-04 15:44:00,101.5,-16.2,29.67,West,270,3.2,-999.0,1,-99.99,,,0.00,Acu-Link.com,2013-06-04 21:44:00,
2013-06-04 15:59:00,102.0,-15.9,29.69,ESE,112,2.2,-999.0,1,-99.99,,,0.00,Acu-Link.com,2013-06-04 21:59:00,
2013-06-04 16:15:00,102.7,-15.5,29.68,South,180,4.7,-999.0,1,-99.99,,,0.00,Acu-Link.com,2013-06-04 22:15:00,
2013-06-04 16:30:00,100.9,-16.5,29.68,East,90,3.2,-999.0,1,-99.99,,,0.00,Acu-Link.com,2013-06-04 22:30:00,
2013-06-04 16:45:00,100.8,-16.6,29.66,ESE,112,2.2,-999.0,1,-99.99,,,0.00,Acu-Link.com,2013-06-04 22:45:00,
2013-06-04 17:01:00,100.6,-16.7,29.63,NNE,22,1.7,-999.0,1,-99.99,,,0.00,Acu-Link.com,2013-06-04 23:01:00,
2013-06-04 17:16:00,99.3,-17.5,29.64,WNW,292,5.3,-999.0,1,-99.99,,,0.00,Acu-Link.com,2013-06-04 23:16:00,
2013-06-04 17:46:00,100.9,-16.5,29.63,West,270,0.0,-999.0,1,-99.99,,,0.00,Acu-Link.com,2013-06-04 23:46:00,
2013-06-04 18:02:00,100.0,-17.1,29.62,WSW,247,2.7,-999.0,1,-99.99,,,0.00,Acu-Link.com,2013-06-05 00:02:00,
2013-06-04 18:17:00,99.0,-17.6,29.63,West,270,1.7,-999.0,1,-99.99,,,0.00,Acu-Link.com,2013-06-05 00:17:00,
2013-06-04 18:32:00,97.3,-18.6,29.63,NE,45,5.3,-999.0,1,-99.99,,,0.00,Acu-Link.com,2013-06-05 00:32:00,
2013-06-04 18:47:00,96.3,-19.2,29.62,NE,45,2.7,-999.0,1,-99.99,,,0.00,Acu-Link.com,2013-06-05 00:47:00,
2013-06-04 19:02:00,96.6,-19.0,29.63,ESE,112,3.7,-999.0,1,-99.99,,,0.00,Acu-Link.com,2013-06-05 01:02:00,
2013-06-04 19:17:00,95.7,-19.6,29.61,East,90,1.7,-999.0,1,-99.99,,,0.00,Acu-Link.com,2013-06-05 01:17:00,
2013-06-04 19:33:00,92.7,-21.3,29.62,SSE,157,2.7,-999.0,1,-99.99,,,0.00,Acu-Link.com,2013-06-05 01:33:00,
2013-06-04 19:48:00,90.7,-22.5,29.65,WSW,247,5.3,-999.0,1,-99.99,,,0.00,Acu-Link.com,2013-06-05 01:48:00,
2013-06-04 20:03:00,88.9,-23.6,29.63,North,0,1.1,-999.0,1,-99.99,,,0.00,Acu-Link.com,2013-06-05 02:03:00,
2013-06-04 20:18:00,87.3,-24.5,29.65,SSW,202,3.7,-999.0,1,-99.99,,,0.00,Acu-Link.com,2013-06-05 02:18:00,
2013-06-04 20:33:00,86.5,-25.0,29.65,South,180,3.7,-999.0,1,-99.99,,,0.00,Acu-Link.com,2013-06-05 02:33:00,
2013-06-04 20:49:00,85.6,-25.5,29.67,WNW,292,1.1,-999.0,1,-99.99,,,0.00,Acu-Link.com,2013-06-05 02:49:00,
2013-06-04 21:04:00,84.7,26.5,29.67,WSW,247,6.8,-999.0,12,-99.99,,,0.00,Acu-Link.com,2013-06-05 03:04:00,
2013-06-04 21:19:00,84.0,34.5,29.69,North,0,2.7,-999.0,17,-99.99,,,0.00,Acu-Link.com,2013-06-05 03:19:00,
2013-06-04 21:35:00,83.5,34.1,29.68,South,180,4.2,-999.0,17,-99.99,,,0.00,Acu-Link.com,2013-06-05 03:35:00,
2013-06-04 21:50:00,82.8,33.5,29.69,NW,315,2.7,-999.0,17,-99.99,,,0.00,Acu-Link.com,2013-06-05 03:50:00,
2013-06-04 22:05:00,82.4,34.6,29.68,NNW,337,3.7,-999.0,18,-99.99,,,0.00,Acu-Link.com,2013-06-05 04:05:00,
2013-06-04 22:20:00,82.6,34.8,29.68,SW,225,2.7,-999.0,18,-99.99,,,0.00,Acu-Link.com,2013-06-05 04:20:00,
2013-06-04 22:35:00,82.0,34.3,29.70,South,180,2.7,-999.0,18,-99.99,,,0.00,Acu-Link.com,2013-06-05 04:35:00,
2013-06-04 22:51:00,82.0,34.3,29.70,West,270,2.2,-999.0,18,-99.99,,,0.00,Acu-Link.com,2013-06-05 04:51:00,
2013-06-04 23:06:00,81.5,33.9,29.70,NW,315,0.0,-999.0,18,-99.99,,,0.00,Acu-Link.com,2013-06-05 05:06:00,
2013-06-04 23:36:00,80.8,33.3,29.72,SSW,202,4.2,-999.0,18,-99.99,,,0.00,Acu-Link.com,2013-06-05 05:36:00,